Location: Pilipovskiye Korichintsy
(49.1833°N, 27.4667°E)
Time: 00:29:49
(UTC+00:00)

Lacrosse 5 - Pass Details

Date: 29 October 2020
Orbit: 714 x 725 km, 57.0° (Epoch: 30 November)

Event Time Altitude Azimuth Distance (km) Brightness Sun altitude
Rises 18:15:15 0° 303° (WNW) 3,121 6.2 -33.2°
Reaches altitude 10° 18:17:39 10° 306° (NW) 2,199 5.1 -33.6°
Enters shadow 18:20:14 30° 312° (NW) 1,258 3.5 -34.0°
